Simultaneous Nadir Overpasses (SNOs) Predictions

Prediction of SNOs between GOES-15 and METOP-C Satellite Orbit:

Table of predicted SNOs for the next 14.0 days since TLE Epoch: 5/25/2019
Index Date Time (GOES-15) GOES-15 Lat,Lon METOP-C Lat,Lon Distance(km) Time Diff (sec)
1 05/26/2019 06:16:39 0.14,-128.42 -0.46,-131.08 303.04 80
2 05/27/2019 05:53:21 0.14,-128.42 0.69,-126.09 265.88 80
3 05/28/2019 18:14:52 -0.14,-128.47 0.36,-130.65 248.69 80
4 05/29/2019 17:51:33 -0.15,-128.47 -0.78,-125.66 320.16 80
5 05/31/2019 06:13:15 0.14,-128.42 -0.24,-130.26 209.13 80
6 06/01/2019 05:49:55 0.15,-128.41 0.85,-125.26 359.17 80
7 06/02/2019 18:11:28 -0.14,-128.45 0.16,-129.82 156.74 80
8 06/03/2019 17:48:09 -0.15,-128.44 -0.98,-124.84 411.14 80
9 06/05/2019 06:09:49 0.14,-128.38 -0.08,-129.43 119.40 80
10 06/06/2019 05:46:30 0.15,-128.36 1.00,-124.43 447.72 80
11 06/07/2019 18:08:03 -0.15,-128.38 -0.04,-129.00 70.02 80




NCC Satellite Simultaneous Nadir Overpasses (SNOs) Prediction Service
